Regional Weather Roundup
Issued by NWS

Home | Current Version | Previous Version | Graphics & Text | Print | Product List | Glossary On
Versions: 1 2 3 4 5 6 7 8 9 10 11 12 13 14 15 16 17 18 19 20 21 22 23 24 25 26 27 28 29 30 31 32 33 34 35 36 37 38 39 40 41 42 43 44 45 46 47 48 49 50
000
ASUS43 KLOT 061408
RWRIL

ILLINOIS REGIONAL WEATHER ROUNDUP
NATIONAL WEATHER SERVICE CHICAGO/ROMEOVILLE IL
800 AM CST SAT FEB 06 2016

NOTE: "FAIR" INDICATES FEW OR NO CLOUDS BELOW 12,000 FEET WITH NO
SIGNIFICANT WEATHER AND/OR OBSTRUCTIONS TO VISIBILITY.

* THESE STATIONS ARE NOT UNDER NWS QUALITY CONTROL. THEY ALSO MAY NOT
  REPORT WEATHER SUCH AS PRECIPITATION OR FOG.

ILZ001-002-007-009-015-016-024-061500-
NORTHWEST ILLINOIS

CITY           SKY/WX    TMP DP  RH WIND       PRES   REMARKS
MOLINE         CLEAR     28  22  78 CALM      30.25F
STERLING*      CLOUDY    28  23  80 SW3       30.24S
SAVANNA*       CLOUDY    29  25  84 S5        30.25F WCI  24
$$

ILZ003-004-008-010-011-017-018-061500-
NORTH CENTRAL ILLINOIS

CITY           SKY/WX    TMP DP  RH WIND       PRES   REMARKS
ROCKFORD       CLOUDY    26  22  84 S6        30.27R WCI  19
FREEPORT*      CLOUDY    27  23  84 SW7       30.26S WCI  20
ROCHELLE*      PTCLDY    25  23  91 SW7       30.27R FOG     WCI  17
DE KALB*       CLEAR     24  22  93 S7        30.26S FOG     WCI  16
PERU*          PTCLDY    28  26  94 SW8       30.29S FOG     WCI  19
$$

ILZ005-006-012>014-019>023-061500-
NORTHEAST ILLINOIS

CITY           SKY/WX    TMP DP  RH WIND       PRES   REMARKS
CHICAGO-OHARE  PTCLDY    26  22  84 SW10      30.26S WCI  16
CHICAGO-MIDWAY PTCLDY    27  21  78 S8        30.28S WCI  19
AURORA         CLEAR     26  22  84 S9        30.28S FOG     WCI  17
LANSING*       CLEAR     26  23  89 S8        30.30S FOG     WCI  17
JOLIET*        CLEAR     27  24  91 S5        30.30S FOG     WCI  21
WAUKEGAN       PTCLDY    26  22  84 SW9       30.24S FOG     WCI  17
DUPAGE AIRPORT CLEAR     25  21  85 S7        30.26S FOG     WCI  17
KANKAKEE*      CLEAR     25  22  89 S6        30.32S FOG     WCI  18
WHEELING       CLEAR     26  22  84 SW8       30.27F FOG     WCI  18
MORRIS*        CLEAR     25  23  91 S3        30.27F FOG
ROMEOVILLE*    CLEAR     25  23  91 S6        30.28F FOG     WCI  18
NORTHERLY ISL    N/A     27  22  81 S5          N/A  WCI  22
$$

LMZ740>746-061500-
SOUTHERN LAKE MICHIGAN

STATION/POSITION SKY/WX   TEMP    WIND        PRES    VSBY  WAVE
                          AIR SEA DIR/SP/G                  HT/PER
                          (F)     (DEG/KT/KT) (MB)    (MI)  (FT/S)
HARRISON CRIB              29     210/ 16/ 17   N/A
BURNHAM HARBOR             27     170/  5/ 10   N/A
CALUMET HARBOR             26     200/  7/ 10 1024.8F
BURNS HARBOR               26     200/ 11/ 14 1026.1F
MICHIGAN CITY              25     160/ 11/ 13   N/A
$$

ILZ025>027-034>036-040-047-049-050-058-095>099-061500-
WEST-CENTRAL ILLINOIS

CITY           SKY/WX    TMP DP  RH WIND       PRES   REMARKS
QUINCY         CLEAR     28  20  71 SE6       30.28R WCI  22
GALESBURG*     CLEAR     25  23  91 S5        30.28R WCI  19
MACOMB*        CLEAR     24  24  96 S3        30.31S
JACKSONVILLE*  CLEAR     32  25  75 S5        30.31S WCI  27
PITTSFIELD*    CLEAR     29  24  82 CALM      30.30R
$$

ILZ028>032-037-038-041>044-048-051>054-059>061-061500-
CENTRAL ILLINOIS

CITY           SKY/WX    TMP DP  RH WIND       PRES   REMARKS
PONTIAC        CLOUDY    27  26  94 S6        30.31F FOG     WCI  21
BLOOMINGTON    CLEAR     26  25  96 S7        30.31S WCI  18
DECATUR        CLEAR     28  24  85 S5        30.32S FOG     WCI  23
PEORIA         CLEAR     26  24  92 CALM      30.30S FOG
LACON*         CLEAR     27  23  84 CALM      30.29F
LINCOLN*       CLEAR     27  26  96 S3        30.31F FOG
SPRINGFIELD    CLEAR     29  25  85 SE5       30.32R WCI  24
TAYLORVILLE    CLEAR     28  27  93 S5        30.33R WCI  23
$$

ILZ033-039-045-046-055>057-062-063-061500-
EAST-CENTRAL ILLINOIS

CITY           SKY/WX    TMP DP  RH WIND       PRES   REMARKS
CHAMPAIGN      MOSUNNY   27  24  89 S5        30.33R FOG     WCI  22
RANTOUL*       MOSUNNY   28  26  90 S6        30.33R FOG     WCI  22
MATTOON        SUNNY     28  24  85 S8        30.32R WCI  20
PARIS*         CLOUDY    28  26  89 S3        30.35R
$$

ILZ079-100>102-061500-
SOUTHWEST ILLINOIS

CITY           SKY/WX    TMP DP  RH WIND       PRES   REMARKS
ALTON          CLEAR     28  25  86 E6        30.33R WCI  22
BELLEVILLE     CLEAR     25  25  99 CALM      30.32R
CAHOKIA*       CLEAR     28  22  78 CALM      30.33R
SPARTA*        MOSUNNY   28  24  84 CALM      30.34R
$$

ILZ064>066-069>071-074>076-080>082-084>086-088>090-092>094-061500-
SOUTH-CENTRAL ILLINOIS

CITY           SKY/WX    TMP DP  RH WIND       PRES   REMARKS
CARBONDALE     SUNNY     26  22  84 CALM      30.34R
CAIRO*         SUNNY     29  29  99 CALM      30.36S
EFFINGHAM*     SUNNY     30  28  94 CALM      30.35R FOG
MARION         MOSUNNY   32  25  74 SE6       30.35R WCI  26
MT. VERNON     SUNNY     28  23  80 CALM      30.34R
CENTRALIA*     SUNNY     31  26  83 E3        30.32S HAZE
SALEM*         SUNNY     31  25  78 CALM      30.33S
METROPOLIS*    SUNNY     27  27  98 CALM      30.37R
$$

ILZ067-068-072-073-078-083-087-091-061500-
SOUTHEAST ILLINOIS

CITY           SKY/WX    TMP DP  RH WIND       PRES   REMARKS
LAWRENCEVILLE  CLOUDY    28  26  92 CALM      30.36R FOG
FLORA*         SUNNY     31  27  85 CALM      30.35R
FAIRFIELD*     MOSUNNY   30  26  82 CALM      30.33S
HARRISBURG*    MOSUNNY   28  26  91 CALM      30.35S
ROBINSON*      CLOUDY    27  25  93 CALM      30.36S FOG
CARMI*         CLOUDY    30  28  90 SE3       30.35R FOG
$$

ABBREVIATIONS USED IN REMARKS
   TC - TEMPERATURE IN CELSIUS
  WCI - WIND CHILL INDEX
   HX - HEAT INDEX
  VSB - VISIBILITY
$$




USA.gov is the U.S. government's official web portal to all federal, state and local government web resources and services.